Location: Newark
(50.4348°N, 30.5552°E)
Time: 21:58:27
(UTC+00:00)

Altair - Pass Details

Date: 24 January 2020
Orbit: 1502 x 1682 km, 47.2° (Epoch: 19 February)

Event Time Altitude Azimuth Distance (km) Brightness Sun altitude
Rises 10:21:02 0° 271° (W) 4,931 10.2 20.2°
Reaches altitude 10° 10:24:12 10° 270° (W) 3,947 9.8 20.2°
Maximum altitude 10:34:20 73° 189° (S) 1,737 8.5 20.1°
Drops below altitude 10° 10:44:17 10° 107° (ESE) 3,885 9.8 19.9°
Sets 10:47:23 0° 106° (ESE) 4,850 10.2 19.8°
